When you browse on this site, cookies collect data to enhance your experience and personalize the content and advertising you see.
Visit our Privacy Policy to learn more. By continuing to use the site, you agree to this use of cookies and data.
  • In Sweden
  • List of Countries
  • For 7 days
  • Water Temperature
  • Satellite Maps
  • Weather Map
  • Weather Widgets
  • user-avatar
    Login

    Hourly Weather Bidayykskoe

    Today, 23 April, Tuesday

    Time Temperature Precipitation Wind Pressure Humidity
    00:00 +7°C° 0 mm 2 mps 755 mmHg 46%
    01:00 +6°C° 0 mm 2 mps 755 mmHg 47%
    02:00 +6°C° 0 mm 2 mps 754 mmHg 49%
    03:00 +5°C° 0 mm 3 mps 754 mmHg 52%
    04:00 +4°C° 0 mm 3 mps 754 mmHg 54%
    05:00 +4°C° 0 mm 3 mps 753 mmHg 57%
    06:00 +5°C° 0 mm 3 mps 753 mmHg 54%
    07:00 +7°C° 0 mm 3 mps 753 mmHg 52%
    08:00 +7°C° 0 mm 4 mps 753 mmHg 49%
    09:00 +8°C° 0 mm 4 mps 752 mmHg 44%
    10:00 +10°C° 0 mm 4 mps 752 mmHg 39%
    11:00 +10°C° 0 mm 4 mps 752 mmHg 35%
    12:00 +11°C° 0 mm 4 mps 752 mmHg 34%
    13:00 +11°C° 0 mm 4 mps 751 mmHg 33%
    14:00 +11°C° 0 mm 4 mps 751 mmHg 32%
    15:00 +11°C° 0 mm 4 mps 751 mmHg 33%
    16:00 +11°C° 0 mm 4 mps 750 mmHg 34%
    17:00 +11°C° 0 mm 4 mps 750 mmHg 34%
    18:00 +11°C° 0 mm 3 mps 750 mmHg 37%
    19:00 +10°C° 0 mm 3 mps 750 mmHg 40%
    20:00 +9°C° 0 mm 2 mps 750 mmHg 42%
    21:00 +9°C° 0 mm 3 mps 750 mmHg 44%
    22:00 +9°C° 0 mm 3 mps 750 mmHg 46%
    23:00 +8°C° 0 mm 3 mps 749 mmHg 48%

    Tomorrow, 24 April, Wednesday

    Time Temperature Precipitation Wind Pressure Humidity
    00:00 +8°C° 0 mm 3 mps 749 mmHg 54%
    01:00 +7°C° 0 mm 3 mps 749 mmHg 60%
    02:00 +7°C° 0 mm 3 mps 749 mmHg 66%
    03:00 +7°C° 0 mm 3 mps 749 mmHg 67%
    04:00 +7°C° 0 mm 3 mps 748 mmHg 68%
    05:00 +7°C° 0 mm 3 mps 748 mmHg 69%
    06:00 +7°C° 0 mm 4 mps 748 mmHg 63%
    07:00 +8°C° 0 mm 4 mps 748 mmHg 57%
    08:00 +10°C° 0 mm 5 mps 748 mmHg 51%
    09:00 +12°C° 0 mm 5 mps 748 mmHg 48%
    10:00 +13°C° 0 mm 6 mps 747 mmHg 44%
    11:00 +14°C° 0 mm 6 mps 747 mmHg 41%
    12:00 +15°C° 0 mm 6 mps 747 mmHg 38%
    13:00 +16°C° 0 mm 6 mps 747 mmHg 35%
    14:00 +16°C° 0 mm 6 mps 746 mmHg 33%
    15:00 +15°C° 0.2 mm 6 mps 746 mmHg 37%
    16:00 +15°C° 0.2 mm 5 mps 746 mmHg 41%
    17:00 +14°C° 0.2 mm 5 mps 746 mmHg 44%
    18:00 +13°C° 0.2 mm 4 mps 746 mmHg 50%
    19:00 +12°C° 0.2 mm 3 mps 746 mmHg 56%
    20:00 +11°C° 0.2 mm 3 mps 746 mmHg 62%
    21:00 +10°C° 0.3 mm 3 mps 745 mmHg 66%
    22:00 +10°C° 0.3 mm 3 mps 745 mmHg 70%
    23:00 +9°C° 0.3 mm 2 mps 745 mmHg 74%

    Day after tomorrow, 25 April, Thursday

    Time Temperature Precipitation Wind Pressure Humidity
    00:00 +9°C° 0.2 mm 3 mps 745 mmHg 75%
    01:00 +8°C° 0.2 mm 3 mps 745 mmHg 77%
    02:00 +8°C° 0.2 mm 3 mps 744 mmHg 79%
    03:00 +7°C° 0 mm 3 mps 744 mmHg 79%
    04:00 +7°C° 0 mm 3 mps 744 mmHg 79%
    05:00 +5°C° 0 mm 3 mps 744 mmHg 79%
    06:00 +7°C° 0 mm 3 mps 744 mmHg 70%
    07:00 +8°C° 0 mm 3 mps 744 mmHg 60%
    08:00 +10°C° 0 mm 4 mps 745 mmHg 51%
    09:00 +10°C° 0 mm 4 mps 745 mmHg 47%
    10:00 +11°C° 0 mm 4 mps 744 mmHg 43%
    11:00 +12°C° 0 mm 4 mps 744 mmHg 40%
    12:00 +12°C° 0.1 mm 4 mps 744 mmHg 40%
    13:00 +12°C° 0.1 mm 4 mps 744 mmHg 41%
    14:00 +12°C° 0.1 mm 4 mps 744 mmHg 41%
    15:00 +12°C° 0.3 mm 3 mps 743 mmHg 46%
    16:00 +12°C° 0.3 mm 2 mps 743 mmHg 51%
    17:00 +10°C° 0.3 mm 2 mps 743 mmHg 56%
    18:00 +9°C° 1.7 mm 2 mps 743 mmHg 63%
    19:00 +8°C° 1.7 mm 2 mps 743 mmHg 71%
    20:00 +7°C° 1.7 mm 2 mps 743 mmHg 78%
    21:00 +7°C° 1 mm 3 mps 743 mmHg 78%
    22:00 +6°C° 1 mm 4 mps 743 mmHg 78%
    23:00 +6°C° 1 mm 5 mps 743 mmHg 77%

    26 April, Friday

    Time Temperature Precipitation Wind Pressure Humidity
    00:00 +5°C° 0.4 mm 5 mps 743 mmHg 74%
    01:00 +3°C° 0.4 mm 6 mps 744 mmHg 72%
    02:00 +2°C° 0.4 mm 6 mps 744 mmHg 69%
    03:00 +1°C° 0.5 mm 6 mps 745 mmHg 70%
    04:00 -1°C° 0.5 mm 6 mps 745 mmHg 72%
    05:00 -1°C° 0.5 mm 6 mps 746 mmHg 73%
    06:00 -1°C° 0.1 mm 6 mps 747 mmHg 69%
    07:00 0°C° 0.1 mm 5 mps 747 mmHg 65%
    08:00 0°C° 0.1 mm 5 mps 748 mmHg 62%
    09:00 +1°C° 0 mm 4 mps 748 mmHg 55%
    10:00 +1°C° 0 mm 4 mps 748 mmHg 48%
    11:00 +3°C° 0 mm 4 mps 749 mmHg 41%
    12:00 +4°C° 0 mm 4 mps 749 mmHg 37%
    13:00 +5°C° 0 mm 3 mps 749 mmHg 33%
    14:00 +5°C° 0 mm 3 mps 749 mmHg 29%
    15:00 +7°C° 0 mm 2 mps 749 mmHg 27%
    16:00 +7°C° 0 mm 2 mps 749 mmHg 26%
    17:00 +7°C° 0 mm 2 mps 749 mmHg 25%
    18:00 +7°C° 0 mm 2 mps 749 mmHg 29%
    19:00 +6°C° 0 mm 2 mps 749 mmHg 33%
    20:00 +5°C° 0 mm 2 mps 749 mmHg 37%
    21:00 +5°C° 0 mm 2 mps 748 mmHg 39%
    22:00 +4°C° 0 mm 3 mps 748 mmHg 41%
    23:00 +3°C° 0 mm 3 mps 748 mmHg 43%

    27 April, Saturday

    Time Temperature Precipitation Wind Pressure Humidity
    00:00 +3°C° 0 mm 3 mps 748 mmHg 45%
    01:00 +3°C° 0 mm 4 mps 747 mmHg 46%
    02:00 +3°C° 0 mm 4 mps 747 mmHg 48%
    03:00 +1°C° 0.1 mm 5 mps 747 mmHg 58%
    04:00 -1°C° 0.1 mm 6 mps 747 mmHg 68%
    05:00 -2°C° 0.1 mm 8 mps 748 mmHg 78%
    06:00 -2°C° 0 mm 8 mps 748 mmHg 73%
    07:00 -2°C° 0 mm 8 mps 749 mmHg 69%
    08:00 -4°C° 0 mm 8 mps 749 mmHg 64%
    09:00 -2°C° 0 mm 7 mps 750 mmHg 61%
    10:00 -2°C° 0 mm 7 mps 751 mmHg 57%
    11:00 -2°C° 0 mm 7 mps 751 mmHg 53%
    12:00 -1°C° 0 mm 7 mps 752 mmHg 50%
    13:00 -1°C° 0 mm 7 mps 752 mmHg 48%
    14:00 -1°C° 0 mm 6 mps 753 mmHg 45%
    15:00 +1°C° 0 mm 6 mps 753 mmHg 43%
    16:00 +1°C° 0 mm 6 mps 753 mmHg 41%
    17:00 +1°C° 0 mm 6 mps 754 mmHg 40%
    18:00 0°C° 0 mm 4 mps 754 mmHg 41%
    19:00 +1°C° 0 mm 3 mps 754 mmHg 43%
    20:00 +1°C° 0 mm 2 mps 754 mmHg 44%
    21:00 0°C° 0 mm 3 mps 754 mmHg 45%
    22:00 0°C° 0 mm 3 mps 754 mmHg 45%
    23:00 -1°C° 0 mm 4 mps 754 mmHg 45%

    28 April, Sunday

    Time Temperature Precipitation Wind Pressure Humidity
    00:00 -2°C° 0 mm 6 mps 754 mmHg 45%
    01:00 -2°C° 0 mm 7 mps 753 mmHg 44%
    02:00 -1°C° 0 mm 8 mps 752 mmHg 43%
    03:00 -1°C° 0 mm 8 mps 752 mmHg 44%
    04:00 -1°C° 0 mm 8 mps 751 mmHg 45%
    05:00 0°C° 0 mm 8 mps 750 mmHg 47%
    06:00 +1°C° 0 mm 9 mps 750 mmHg 45%
    07:00 +3°C° 0 mm 10 mps 750 mmHg 43%
    08:00 +6°C° 0 mm 10 mps 749 mmHg 41%
    09:00 +8°C° 0 mm 11 mps 748 mmHg 40%
    10:00 +11°C° 0 mm 11 mps 748 mmHg 39%
    11:00 +13°C° 0 mm 12 mps 747 mmHg 39%
    12:00 +13°C° 0 mm 11 mps 746 mmHg 39%
    13:00 +14°C° 0 mm 11 mps 746 mmHg 40%
    14:00 +14°C° 0 mm 10 mps 745 mmHg 41%
    15:00 +14°C° 0.1 mm 10 mps 745 mmHg 42%
    16:00 +13°C° 0.1 mm 9 mps 744 mmHg 44%
    17:00 +12°C° 0.1 mm 8 mps 744 mmHg 45%
    18:00 +12°C° 0 mm 8 mps 743 mmHg 48%
    19:00 +11°C° 0 mm 8 mps 743 mmHg 52%
    20:00 +11°C° 0 mm 7 mps 742 mmHg 55%
    21:00 +11°C° 0.4 mm 8 mps 741 mmHg 61%
    22:00 +10°C° 0.4 mm 8 mps 741 mmHg 68%
    23:00 +10°C° 0.4 mm 8 mps 741 mmHg 74%
    Show more